{"data":{"norad_id":59854,"epoch":"2026-05-25T04:36:01.306656Z","epoch_age_seconds":48765,"freshness":"FRESH","line1":"1 59854U 24097V   26145.19168179 -.00000750  00000+0 -17751-4 0  9991","line2":"2 59854  42.9983 202.5883 0001003 287.8793  72.1949 15.27585607113614","mean_motion":15.27585607,"eccentricity":0.0001003,"inclination_deg":42.9983,"raan_deg":202.5883,"arg_perigee_deg":287.8793,"mean_anomaly_deg":72.1949,"bstar":-1.7751e-5,"rev_number":11361,"period_min":94.266402707734,"perigee_km":482.34413143444,"apogee_km":483.72048199736,"semimajor_km":6861.1693067159,"source":"CELESTRAK","updated_at":"2026-05-25T13:38:19.089102Z"}}